FW2982 Weather Reports


Display with metric or nautical units.
time (UTC)temp
F
wind
direction
speed
MPH
gust
MPH
rain 1hr
in
rain 24hr
in
rain mn
in
humidity
%
barometer
mb
20260508041351 47 100 0.0 0.0 0.00 0.01 0.00 91 1009.4
20260508040853 47 100 0.0 0.0 0.00 0.01 0.00 91 1009.4
20260508040349 47 100 0.0 0.0 0.00 0.01 0.00 90 1009.3
20260508035850 48 100 0.0 0.0 0.00 0.01 0.01 90 1009.2
20260508035349 48 100 0.0 0.0 0.00 0.01 0.01 90 1009.1
20260508034845 48 100 0.0 0.0 0.00 0.01 0.01 90 1009.1
20260508034343 48 100 0.0 1.0 0.00 0.01 0.01 90 1009.1
20260508033843 48 100 0.0 1.0 0.00 0.01 0.01 90 1009.0
20260508033339 48 100 0.0 1.0 0.00 0.01 0.01 90 1009.1
20260508032838 48 100 0.0 0.0 0.00 0.01 0.01 90 1009.1
20260508032335 48 100 0.0 1.0 0.00 0.01 0.01 89 1009.1
20260508032120 48 100 0.0 1.0 0.00 0.01 0.01 89 1009.0
20260508032114 48 100 0.0 1.0 0.00 0.01 0.01 89 1009.1
20260508031053 49 100 0.0 1.0 0.00 0.01 0.01 89 1009.0
20260508030559 49 100 0.0 1.0 0.00 0.01 0.01 89 1009.0
20260508025857 49 100 0.0 1.0 0.00 0.01 0.01 88 1009.0
20260508025848 48 100 0.0 1.0 0.00 0.01 0.01 88 1009.0
20260508024834 49 100 0.0 0.0 0.00 0.01 0.01 87 1008.9
20260508024333 49 100 0.0 0.0 0.00 0.01 0.01 87 1009.0
20260508023833 49 100 0.0 0.0 0.00 0.01 0.01 87 1008.9
20260508023331 49 100 0.0 0.0 0.00 0.01 0.01 86 1009.0
20260508023112 49 100 0.0 0.0 0.00 0.01 0.01 86 1009.0
20260508022327 49 100 0.0 0.0 0.00 0.01 0.01 86 1008.9
20260508021827 50 100 0.0 0.0 0.00 0.01 0.01 86 1008.9
20260508021327 50 100 0.0 0.0 0.00 0.01 0.01 86 1008.8
20260508020824 50 100 0.0 0.0 0.00 0.01 0.01 86 1008.9
20260508020326 50 100 0.0 0.0 0.00 0.01 0.01 85 1008.9
20260508015826 50 100 0.0 0.0 0.00 0.01 0.01 85 1008.7
20260508015325 50 100 0.0 0.0 0.00 0.01 0.01 85 1008.8
20260508014824 51 100 0.0 0.0 0.00 0.01 0.01 84 1008.7
20260508014324 51 100 0.0 0.0 0.00 0.01 0.01 84 1008.8
20260508013823 51 100 0.0 0.0 0.00 0.01 0.01 84 1008.6
20260508013322 51 100 0.0 0.0 0.00 0.01 0.01 83 1008.6
20260508012823 51 100 0.0 0.0 0.00 0.01 0.01 84 1008.7
20260508012321 51 100 0.0 0.0 0.00 0.01 0.01 83 1008.5
20260508011819 52 100 0.0 0.0 0.00 0.01 0.01 82 1008.5
20260508011559 52 100 0.0 0.0 0.00 0.01 0.01 82 1008.5
20260508010817 52 100 0.0 0.0 0.00 0.01 0.01 81 1008.4
20260508010317 52 100 0.0 1.0 0.00 0.01 0.01 81 1008.4
20260508005817 52 100 0.0 1.0 0.00 0.01 0.01 80 1008.3
20260508005314 53 100 0.0 0.0 0.00 0.01 0.01 80 1008.2
20260508005054 53 100 0.0 1.0 0.00 0.01 0.01 79 1008.0
20260508004316 53 100 0.0 1.0 0.00 0.01 0.01 79 1007.9
20260508003815 54 100 0.0 1.0 0.00 0.01 0.01 78 1008.0
20260508003314 54 96 0.0 1.0 0.00 0.01 0.01 78 1007.8
20260508003054 54 96 0.0 3.0 0.00 0.01 0.01 77 1007.8
20260508002312 55 96 0.0 3.0 0.00 0.01 0.01 76 1007.8
20260508002050 55 94 0.0 2.0 0.00 0.01 0.01 77 1007.8
20260508001312 55 93 0.0 2.0 0.00 0.01 0.01 76 1007.7
20260508000811 55 173 1.0 2.0 0.00 0.01 0.01 75 1007.7
20260508000312 56 121 0.0 3.0 0.00 0.01 0.01 75 1007.6
20260507235810 56 257 0.0 3.0 0.00 0.01 0.01 75 1007.5
20260507235549 56 58 0.0 2.0 0.00 0.01 0.01 74 1007.4
20260507234807 56 54 0.0 3.0 0.00 0.01 0.01 74 1007.3
20260507234309 56 52 1.0 3.0 0.00 0.01 0.01 73 1007.3
20260507233807 57 113 0.0 2.0 0.00 0.01 0.01 72 1007.2
20260507233308 57 49 0.0 2.0 0.00 0.01 0.01 72 1007.1
20260507232806 57 188 0.0 1.0 0.00 0.01 0.01 70 1007.1
20260507232306 58 254 0.0 3.0 0.00 0.01 0.01 70 1007.0
20260507231803 58 241 0.0 3.0 0.00 0.01 0.01 69 1006.9
20260507231304 58 109 1.0 4.0 0.00 0.01 0.01 68 1007.0
20260507230803 58 162 1.0 5.0 0.00 0.01 0.01 67 1006.8
20260507230303 59 252 0.0 5.0 0.00 0.01 0.01 67 1006.7
20260507225803 59 243 1.0 2.0 0.00 0.01 0.01 66 1006.6
20260507225305 60 245 1.0 4.0 0.00 0.01 0.01 64 1006.7
20260507224828 60 78 1.0 4.0 0.00 0.01 0.01 62 1006.5
20260507224820 60 247 2.0 4.0 0.00 0.01 0.01 63 1006.6
20260507223804 60 213 1.0 3.0 0.00 0.01 0.01 62 1006.4
20260507223545 60 200 0.0 3.0 0.00 0.01 0.01 63 1006.4
20260507223042 60 199 0.0 2.0 0.00 0.01 0.01 61 1006.3
20260507222305 61 202 1.0 5.0 0.00 0.01 0.01 61 1006.4
20260507221801 61 219 2.0 6.0 0.00 0.01 0.01 62 1006.4
20260507221301 61 82 2.0 6.0 0.00 0.01 0.01 61 1006.4
20260507220803 61 221 2.0 4.0 0.00 0.01 0.01 60 1006.4
20260507220304 61 197 0.0 2.0 0.00 0.01 0.01 62 1006.3
20260507220043 61 183 0.0 2.0 0.00 0.01 0.01 62 1006.3
20260507215300 61 182 1.0 3.0 0.00 0.01 0.01 60 1006.3
20260507214800 61 89 1.0 4.0 0.00 0.01 0.01 59 1006.4
20260507214302 61 82 1.0 4.0 0.00 0.01 0.01 59 1006.4
20260507213759 62 221 1.0 4.0 0.00 0.01 0.01 59 1006.4
20260507213258 62 204 2.0 4.0 0.00 0.01 0.01 59 1006.5
20260507212753 62 226 1.0 5.0 0.00 0.01 0.01 59 1006.5
20260507212251 62 199 1.0 5.0 0.00 0.01 0.01 58 1006.4
20260507211753 62 244 1.0 5.0 0.00 0.01 0.01 57 1006.4
20260507211252 62 202 2.0 5.0 0.00 0.01 0.01 57 1006.5
20260507211031 62 161 2.0 5.0 0.00 0.01 0.01 58 1006.4
20260507210251 63 240 2.0 5.0 0.00 0.01 0.01 58 1006.4
20260507210030 63 221 2.0 5.0 0.00 0.01 0.01 58 1006.4
20260507205250 63 39 1.0 3.0 0.00 0.01 0.01 57 1006.4
20260507204753 62 237 1.0 5.0 0.00 0.01 0.01 59 1006.3
20260507204248 62 165 1.0 5.0 0.00 0.01 0.01 60 1006.4
20260507203748 62 154 2.0 6.0 0.00 0.01 0.01 56 1006.3
20260507203246 62 148 2.0 6.0 0.00 0.01 0.01 59 1006.4
20260507203028 62 202 1.0 4.0 0.00 0.01 0.01 60 1006.4
20260507202243 60 207 1.0 3.0 0.00 0.01 0.01 61 1006.3
20260507201746 60 154 1.0 2.0 0.00 0.01 0.01 62 1006.4
20260507201241 60 199 0.0 5.0 0.00 0.01 0.01 62 1006.4
20260507200743 60 207 2.0 5.0 0.00 0.01 0.01 59 1006.5
20260507200543 61 130 1.0 2.0 0.00 0.01 0.01 60 1006.3
20260507200536 60 68 2.0 3.0 0.00 0.01 0.01 60 1006.5
20260507195238 62 341 0.0 3.0 0.00 0.01 0.01 58 1006.4
20260507194739 62 220 1.0 4.0 0.00 0.01 0.01 54 1006.4
20260507194236 63 310 1.0 4.0 0.00 0.01 0.01 51 1006.4
20260507193734 64 258 1.0 3.0 0.00 0.01 0.01 52 1006.2
20260507193233 64 274 0.0 3.0 0.00 0.01 0.01 52 1006.4
20260507192734 65 0 1.0 4.0 0.00 0.01 0.01 50 1006.6
20260507192232 66 207 1.0 4.0 0.00 0.01 0.01 46 1006.7
20260507191731 66 120 1.0 5.0 0.00 0.01 0.01 46 1006.8
20260507191235 65 42 0.0 9.0 0.00 0.01 0.01 49 1006.9
20260507190732 65 80 3.0 9.0 0.00 0.01 0.01 49 1007.0
20260507190231 66 116 2.0 6.0 0.00 0.01 0.01 46 1006.9
20260507185732 66 80 3.0 5.0 0.00 0.01 0.01 48 1007.0
20260507185231 67 165 0.0 3.0 0.00 0.01 0.01 45 1007.2
20260507184733 66 90 1.0 2.0 0.00 0.01 0.01 48 1007.1
20260507184232 67 227 0.0 9.0 0.00 0.01 0.01 49 1007.1
20260507183730 65 228 1.0 9.0 0.00 0.01 0.01 49 1007.1
20260507183231 65 48 2.0 6.0 0.00 0.01 0.01 47 1007.2
20260507182726 66 161 1.0 4.0 0.00 0.01 0.01 50 1007.2
20260507182223 65 89 1.0 4.0 0.00 0.01 0.01 52 1007.4
20260507181724 64 172 1.0 4.0 0.00 0.01 0.01 48 1007.6
20260507181505 64 97 1.0 5.0 0.00 0.01 0.01 51 1007.6
20260507180724 63 59 2.0 5.0 0.00 0.01 0.01 46 1007.7
20260507180223 65 93 1.0 7.0 0.00 0.01 0.01 49 1007.8
20260507175724 65 281 1.0 7.0 0.00 0.01 0.01 50 1007.7
20260507175219 65 23 2.0 4.0 0.00 0.01 0.01 48 1007.9
20260507174715 64 66 2.0 4.0 0.00 0.01 0.01 53 1007.9
20260507174215 62 279 2.0 6.0 0.00 0.01 0.01 51 1007.9
20260507173716 62 82 3.0 6.0 0.00 0.01 0.01 48 1008.0
20260507173215 62 175 3.0 6.0 0.00 0.01 0.01 49 1008.0
20260507172952 61 25 4.0 6.0 0.00 0.01 0.01 49 1008.2
20260507172212 61 79 1.0 6.0 0.00 0.01 0.01 56 1008.4
20260507171949 61 78 3.0 6.0 0.00 0.01 0.01 50 1008.6
20260507171210 62 281 0.0 3.0 0.00 0.01 0.01 51 1008.7
20260507170944 62 347 1.0 4.0 0.00 0.01 0.01 55 1008.8
20260507170204 60 223 2.0 4.0 0.00 0.01 0.01 56 1008.8
20260507165702 59 123 1.0 6.0 0.00 0.01 0.01 57 1008.9
20260507165203 59 99 2.0 6.0 0.00 0.01 0.01 56 1009.0
20260507164702 58 97 0.0 4.0 0.00 0.01 0.01 56 1009.1
20260507164202 59 106 2.0 3.0 0.00 0.01 0.01 57 1009.3
20260507163704 60 276 0.0 4.0 0.00 0.01 0.01 57 1009.1
20260507163203 59 268 1.0 4.0 0.00 0.01 0.01 57 1009.1
20260507162941 58 97 2.0 4.0 0.00 0.01 0.01 53 1009.2
20260507162441 60 20 1.0 4.0 0.00 0.01 0.01 58 1009.4
20260507161703 58 41 2.0 4.0 0.00 0.01 0.01 60 1009.5
20260507161202 57 89 1.0 4.0 0.00 0.01 0.01 58 1009.4
20260507160705 58 97 1.0 3.0 0.00 0.01 0.01 63 1009.5
20260507160203 58 221 1.0 3.0 0.00 0.01 0.01 64 1009.6
20260507155702 58 214 1.0 3.0 0.00 0.01 0.01 62 1009.6
20260507155442 58 102 0.0 2.0 0.00 0.01 0.01 61 1009.6
20260507154703 58 49 1.0 2.0 0.00 0.01 0.01 64 1009.5
20260507154201 57 49 0.0 3.0 0.00 0.01 0.01 62 1009.7
20260507153702 57 42 1.0 3.0 0.00 0.01 0.01 62 1009.7
20260507153202 57 265 0.0 3.0 0.00 0.01 0.01 63 1009.8
20260507152703 57 276 1.0 3.0 0.00 0.02 0.01 63 1009.9
20260507152439 57 278 1.0 3.0 0.00 0.02 0.01 62 1010.0
20260507151704 58 61 1.0 3.0 0.00 0.02 0.01 65 1009.9
20260507151440 57 82 0.0 3.0 0.00 0.02 0.01 63 1009.9
20260507150702 56 82 0.0 3.0 0.00 0.02 0.01 65 1010.0
20260507150202 56 83 1.0 3.0 0.00 0.03 0.01 66 1010.0
20260507145702 56 85 0.0 3.0 0.00 0.03 0.01 64 1010.1
20260507145441 56 106 1.0 2.0 0.00 0.04 0.01 65 1010.1
20260507144702 56 58 1.0 3.0 0.00 0.04 0.01 68 1010.2
20260507144203 55 63 0.0 3.0 0.00 0.05 0.01 66 1010.3
20260507143918 55 226 0.0 3.0 0.00 0.05 0.01 70 1010.4
20260507143138 55 290 0.0 2.0 0.00 0.06 0.01 69 1010.4
20260507142920 55 290 0.0 2.0 0.00 0.06 0.01 68 1010.4
20260507142140 55 289 0.0 1.0 0.00 0.06 0.01 70 1010.3
20260507141917 55 289 0.0 1.0 0.00 0.06 0.01 71 1010.5
20260507141138 55 289 0.0 1.0 0.00 0.06 0.01 73 1010.5
20260507140640 54 289 0.0 3.0 0.00 0.07 0.01 70 1010.5
20260507140420 54 289 1.0 3.0 0.00 0.07 0.01 71 1010.4
20260507135638 54 55 0.0 3.0 0.00 0.08 0.01 72 1010.7
20260507135138 54 55 0.0 3.0 0.00 0.08 0.01 70 1010.6
20260507134637 54 296 0.0 3.0 0.00 0.09 0.01 70 1011.0
20260507134137 54 285 1.0 3.0 0.00 0.11 0.01 71 1010.7
20260507133917 54 295 0.0 3.0 0.00 0.13 0.01 71 1010.7
20260507133137 54 295 1.0 4.0 0.00 0.14 0.01 70 1010.8
20260507132917 54 63 1.0 4.0 0.00 0.16 0.01 70 1010.7
20260507132137 54 16 1.0 3.0 0.00 0.18 0.01 71 1010.7
20260507131915 54 271 1.0 2.0 0.00 0.20 0.01 74 1010.6
20260507131138 55 252 0.0 2.0 0.00 0.22 0.01 75 1010.6
20260507130636 54 262 0.0 3.0 0.00 0.24 0.01 76 1010.6
20260507130138 54 262 0.0 3.0 0.00 0.25 0.01 75 1010.7
20260507125636 54 283 1.0 3.0 0.00 0.25 0.01 76 1010.5
20260507125140 54 90 1.0 2.0 0.00 0.25 0.01 77 1010.4
20260507124636 54 149 0.0 3.0 0.00 0.25 0.01 78 1010.5
20260507124137 54 148 0.0 3.0 0.00 0.25 0.01 78 1010.7
20260507123637 54 255 0.0 2.0 0.00 0.26 0.01 78 1010.5
20260507123136 54 255 0.0 2.0 0.00 0.26 0.01 77 1010.6
20260507122635 54 255 0.0 3.0 0.00 0.26 0.01 78 1010.7
20260507122135 54 255 0.0 3.0 0.00 0.26 0.01 79 1010.7
20260507121636 54 209 0.0 2.0 0.00 0.26 0.01 78 1010.6
20260507121137 54 169 0.0 1.0 0.00 0.26 0.01 79 1010.5
20260507120637 54 169 0.0 1.0 0.00 0.27 0.01 79 1010.5
20260507120135 54 169 0.0 2.0 0.00 0.28 0.01 78 1010.4
20260507115635 54 94 0.0 3.0 0.00 0.28 0.01 77 1010.5
20260507115133 54 86 0.0 3.0 0.00 0.28 0.01 79 1010.6
20260507114634 54 80 0.0 2.0 0.00 0.28 0.01 78 1010.3
20260507114132 54 250 0.0 3.0 0.00 0.28 0.01 79 1010.3
20260507113631 54 247 0.0 3.0 0.00 0.28 0.01 78 1010.1
20260507113131 54 31 0.0 3.0 0.00 0.28 0.01 80 1010.0
20260507112632 54 316 0.0 3.0 0.00 0.28 0.01 81 1010.0
20260507112132 54 316 0.0 3.0 0.00 0.28 0.01 81 1010.1
20260507111911 54 329 0.0 1.0 0.00 0.28 0.01 81 1010.1
20260507111131 54 330 0.0 1.0 0.00 0.28 0.01 81 1010.0
20260507110631 54 333 0.0 1.0 0.00 0.28 0.01 82 1009.9
20260507110131 54 330 0.0 1.0 0.00 0.28 0.01 82 1009.9
20260507105631 54 330 0.0 1.0 0.00 0.28 0.01 81 1010.0
20260507105133 54 330 0.0 1.0 0.00 0.28 0.01 81 1010.0
20260507104632 54 330 0.0 1.0 0.00 0.28 0.01 81 1009.9
20260507104132 54 330 0.0 1.0 0.00 0.28 0.01 81 1009.8
20260507103618 54 330 0.0 1.0 0.00 0.28 0.01 80 1009.7
20260507103112 54 331 0.0 3.0 0.00 0.28 0.01 80 1009.7
20260507102607 54 331 0.0 3.0 0.00 0.28 0.01 81 1009.7
20260507102107 54 180 0.0 0.0 0.00 0.28 0.01 81 1009.5
20260507101606 54 180 0.0 0.0 0.00 0.28 0.01 81 1009.6
20260507101103 54 180 0.0 0.0 0.00 0.28 0.01 81 1009.5
20260507100607 54 180 0.0 2.0 0.00 0.28 0.01 80 1009.5
20260507100104 54 179 1.0 2.0 0.00 0.28 0.01 80 1009.5
20260507095541 54 86 0.0 2.0 0.00 0.28 0.01 81 1009.5
20260507095041 54 283 0.0 2.0 0.00 0.28 0.01 81 1009.5
20260507094541 54 288 0.0 2.0 0.00 0.28 0.01 82 1009.4
20260507094104 54 286 1.0 3.0 0.00 0.28 0.01 82 1009.4
20260507094055 54 288 0.0 3.0 0.00 0.28 0.01 82 1009.5
20260507093039 55 264 0.0 2.0 0.00 0.28 0.01 83 1009.4
20260507092537 55 221 0.0 3.0 0.00 0.28 0.01 83 1009.4
20260507092037 54 148 0.0 3.0 0.00 0.28 0.01 83 1009.3
20260507091536 55 329 0.0 2.0 0.00 0.28 0.01 84 1009.0
20260507091033 55 329 0.0 2.0 0.00 0.28 0.01 85 1009.0
20260507090811 55 329 0.0 2.0 0.00 0.28 0.01 85 1009.1
20260507090313 55 327 0.0 1.0 0.00 0.28 0.01 85 1009.1
20260507085531 55 329 0.0 1.0 0.00 0.28 0.01 86 1009.1
20260507085031 55 331 0.0 1.0 0.00 0.28 0.01 86 1009.2
20260507084556 55 329 0.0 0.0 0.00 0.28 0.01 87 1009.1
20260507084547 55 331 0.0 1.0 0.00 0.28 0.01 87 1009.2
20260507083533 55 329 0.0 3.0 0.00 0.28 0.01 87 1009.0
20260507083311 55 329 0.0 3.0 0.00 0.28 0.01 87 1009.1
20260507082531 55 0 0.0 2.0 0.00 0.28 0.01 87 1009.4
20260507082034 55 0 0.0 2.0 0.00 0.28 0.01 87 1009.1
20260507081531 55 4 0.0 1.0 0.00 0.28 0.01 87 1009.0
20260507081031 55 0 0.0 1.0 0.00 0.28 0.01 87 1009.0
20260507080532 55 6 0.0 1.0 0.00 0.28 0.01 87 1008.7
20260507080033 55 6 0.0 1.0 0.00 0.28 0.01 87 1008.6
20260507075812 55 6 0.0 1.0 0.00 0.28 0.01 87 1008.5
20260507075033 55 21 0.0 2.0 0.00 0.28 0.01 87 1008.4
20260507074532 55 107 0.0 2.0 0.00 0.28 0.01 87 1008.6
20260507074033 55 255 0.0 2.0 0.00 0.28 0.01 87 1008.6
20260507073533 55 255 0.0 3.0 0.00 0.28 0.01 87 1008.7
20260507073309 55 252 0.0 3.0 0.00 0.28 0.01 87 1008.4
20260507072531 55 320 1.0 3.0 0.00 0.28 0.01 88 1008.4
20260507072031 55 323 0.0 3.0 0.00 0.28 0.01 87 1008.3
20260507071532 55 257 0.0 3.0 0.00 0.28 0.01 88 1008.4
20260507071032 55 257 0.0 3.0 0.00 0.28 0.01 88 1008.5
20260507070810 55 261 0.0 2.0 0.00 0.28 0.01 88 1008.3
20260507070311 55 268 0.0 4.0 0.00 0.28 0.01 89 1008.4
20260507065811 55 274 0.0 4.0 0.00 0.28 0.01 89 1008.5
20260507065031 55 345 0.0 4.0 0.00 0.28 0.01 90 1008.4
20260507064530 56 230 1.0 4.0 0.00 0.28 0.01 90 1008.5
20260507064311 56 319 0.0 1.0 0.01 0.28 0.01 91 1008.5
20260507063532 56 319 0.0 1.0 0.01 0.28 0.01 91 1008.5
20260507063312 56 319 0.0 2.0 0.01 0.28 0.01 91 1008.5
20260507062532 56 314 0.0 2.0 0.01 0.28 0.01 91 1008.6
20260507062031 56 330 0.0 2.0 0.01 0.28 0.01 91 1008.7
20260507061531 56 351 0.0 3.0 0.01 0.28 0.01 91 1008.6
20260507061032 56 18 0.0 3.0 0.01 0.28 0.01 91 1008.3
20260507060810 56 259 0.0 2.0 0.01 0.28 0.01 91 1008.3
20260507060059 56 264 1.0 3.0 0.01 0.27 0.01 90 1008.4
20260507060052 56 30 0.0 3.0 0.01 0.27 0.01 91 1008.4
20260507055030 56 288 0.0 2.0 0.01 0.27 0.01 90 1008.6
20260507054531 56 285 1.0 3.0 0.01 0.27 0.01 90 1008.7
20260507054032 56 186 1.0 3.0 0.00 0.27 0.00 90 1008.5
20260507053532 57 317 1.0 3.0 0.00 0.27 0.00 89 1008.6
20260507053032 57 54 1.0 3.0 0.00 0.27 0.00 89 1008.7
20260507052530 57 45 1.0 3.0 0.00 0.27 0.00 89 1008.5
20260507052031 57 6 1.0 3.0 0.00 0.27 0.00 89 1008.7
20260507051531 57 295 1.0 3.0 0.00 0.27 0.00 89 1008.5
20260507051312 57 257 1.0 4.0 0.00 0.27 0.00 89 1008.3
20260507050532 57 73 1.0 4.0 0.00 0.27 0.00 88 1008.2
20260507050310 58 66 2.0 4.0 0.00 0.27 0.00 88 1008.2
20260507045533 58 244 1.0 3.0 0.00 0.27 0.00 88 1008.8
20260507045031 58 257 0.0 4.0 0.00 0.27 0.00 88 1008.8
20260507044532 58 61 1.0 4.0 0.00 0.27 0.00 87 1008.5
20260507044032 58 97 1.0 3.0 0.00 0.27 0.00 87 1008.6
20260507043531 59 245 0.0 2.0 0.00 0.27 0.00 86 1008.8
20260507043031 59 245 1.0 4.0 0.00 0.27 0.00 85 1008.7
20260507042531 59 237 1.0 4.0 0.00 0.27 0.00 85 1008.6
20260507042032 60 16 1.0 5.0 0.00 0.27 0.00 84 1008.9